"Sample Date","Sample Time","Sensor Name","Sample Value","Units","Flow Rate","Sample Interval","Sample Volume","Laser Status","Number Channels","Micron Size 0","Counts/Channel 0","Micron Size 1","Counts/Channel 1","Micron Size 2","Counts/Channel 2","Micron Size 3","Counts/Channel 3","Micron Size 4","Counts/Channel 4","Micron Size 5","Counts/Channel 5","Micron Size 6","Counts/Channel 6","Micron Size 7","Counts/Channel 7","Micron Size 8","Counts/Channel 8","Micron Size 9","Counts/Channel 9","Micron Size 10","Counts/Channel 10","Micron Size 11","Counts/Channel 11","Micron Size 12","Counts/Channel 12","Micron Size 13","Counts/Channel 13","Micron Size 14","Counts/Channel 14","Micron Size 15","Counts/Channel 15","Micron Size 16","Counts/Channel 16","Micron Size 17","Counts/Channel 17","Micron Size 18","Counts/Channel 18","Micron Size 19","Counts/Channel 19","Micron Size 20","Counts/Channel 20","Micron Size 21","Counts/Channel 21","Micron Size 22","Counts/Channel 22","Micron Size 23","Counts/Channel 23","Micron Size 24","Counts/Channel 24","Micron Size 25","Counts/Channel 25","Micron Size 26","Counts/Channel 26","Micron Size 27","Counts/Channel 27","Micron Size 28","Counts/Channel 28","Micron Size 29","Counts/Channel 29","Micron Size 30","Counts/Channel 30","Micron Size 31","Counts/Channel 31"
"07/10/06","05:00:02","AMMA06",34020.000,"cc",28316.529,6.00,2831.653,1,6,0.100,17821.000,0.200,13833.000,0.300,2199.000,0.500,119.000,1.000,48.000,5.000,0
"07/10/06","05:00:08","AMMA06",34215.000,"cc",28335.797,6.00,2833.580,1,6,0.100,17865.000,0.200,13973.000,0.300,2192.000,0.500,132.000,1.000,53.000,5.000,0
"07/10/06","05:00:14","AMMA06",34442.000,"cc",28290.699,6.00,2829.070,1,6,0.100,17916.000,0.200,14098.000,0.300,2272.000,0.500,117.000,1.000,39.000,5.000,0
"07/10/06","05:00:20","AMMA06",34221.000,"cc",28309.734,6.00,2830.974,1,6,0.100,17898.000,0.200,13930.000,0.300,2216.000,0.500,118.000,1.000,59.000,5.000,0
"07/10/06","05:00:26","AMMA06",34077.000,"cc",28340.859,6.00,2834.086,1,6,0.100,17802.000,0.200,13850.000,0.300,2266.000,0.500,110.000,1.000,49.000,5.000,0
"07/10/06","05:00:32","AMMA06",34263.000,"cc",28310.551,6.00,2831.055,1,6,0.100,17920.000,0.200,13944.000,0.300,2230.000,0.500,119.000,1.000,50.000,5.000,0
"07/10/06","05:00:38","AMMA06",34396.000,"cc",28319.150,6.00,2831.915,1,6,0.100,18085.000,0.200,13881.000,0.300,2252.000,0.500,119.000,1.000,59.000,5.000,0
"07/10/06","05:00:44","AMMA06",34342.000,"cc",28332.305,6.00,2833.231,1,6,0.100,18143.000,0.200,13854.000,0.300,2161.000,0.500,130.000,1.000,54.000,5.000,0
"07/10/06","05:00:50","AMMA06",33590.000,"cc",28290.719,6.00,2829.072,1,6,0.100,17590.000,0.200,13639.000,0.300,2199.000,0.500,119.000,1.000,43.000,5.000,0
"07/10/06","05:00:56","AMMA06",34191.000,"cc",28304.369,6.00,2830.437,1,6,0.100,17995.000,0.200,13768.000,0.300,2247.000,0.500,126.000,1.000,55.000,5.000,0
"07/10/06","05:01:02","AMMA06",33528.000,"cc",28337.998,6.00,2833.800,1,6,0.100,17776.000,0.200,13507.000,0.300,2066.000,0.500,123.000,1.000,56.000,5.000,0
"07/10/06","05:01:08","AMMA06",33435.000,"cc",28295.092,6.00,2829.509,1,6,0.100,17690.000,0.200,13462.000,0.300,2109.000,0.500,120.000,1.000,54.000,5.000,0
"07/10/06","05:01:14","AMMA06",33389.000,"cc",28326.283,6.00,2832.628,1,6,0.100,17516.000,0.200,13574.000,0.300,2096.000,0.500,149.000,1.000,54.000,5.000,0
"07/10/06","05:01:20","AMMA06",33448.000,"cc",28309.469,6.00,2830.947,1,6,0.100,17637.000,0.200,13522.000,0.300,2149.000,0.500,90.000,1.000,50.000,5.000,0
"07/10/06","05:01:26","AMMA06",33304.000,"cc",28298.813,6.00,2829.881,1,6,0.100,17598.000,0.200,13366.000,0.300,2176.000,0.500,117.000,1.000,47.000,5.000,0
"07/10/06","05:01:32","AMMA06",33630.000,"cc",28279.053,6.00,2827.906,1,6,0.100,17626.000,0.200,13595.000,0.300,2240.000,0.500,112.000,1.000,57.000,5.000,0
"07/10/06","05:01:38","AMMA06",33538.000,"cc",28330.291,6.00,2833.029,1,6,0.100,17595.000,0.200,13573.000,0.300,2193.000,0.500,121.000,1.000,56.000,5.000,0
"07/10/06","05:01:44","AMMA06",33481.000,"cc",28341.098,6.00,2834.110,1,6,0.100,17527.000,0.200,13567.000,0.300,2227.000,0.500,110.000,1.000,50.000,5.000,0
"07/10/06","05:01:50","AMMA06",33711.000,"cc",28331.465,6.00,2833.147,1,6,0.100,17499.000,0.200,13829.000,0.300,2196.000,0.500,131.000,1.000,56.000,5.000,0
"07/10/06","05:01:56","AMMA06",33746.000,"cc",28329.662,6.00,2832.966,1,6,0.100,17732.000,0.200,13668.000,0.300,2141.000,0.500,140.000,1.000,65.000,5.000,0
"07/10/06","05:02:02","AMMA06",33759.000,"cc",28297.303,6.00,2829.731,1,6,0.100,17690.000,0.200,13658.000,0.300,2246.000,0.500,105.000,1.000,60.000,5.000,0
"07/10/06","05:02:08","AMMA06",33520.000,"cc",28297.816,6.00,2829.782,1,6,0.100,17470.000,0.200,13607.000,0.300,2246.000,0.500,132.000,1.000,65.000,5.000,0
"07/10/06","05:02:14","AMMA06",33532.000,"cc",28318.951,6.00,2831.895,1,6,0.100,17578.000,0.200,13590.000,0.300,2184.000,0.500,119.000,1.000,61.000,5.000,0
"07/10/06","05:02:20","AMMA06",33453.000,"cc",28340.973,6.00,2834.097,1,6,0.100,17373.000,0.200,13749.000,0.300,2180.000,0.500,107.000,1.000,44.000,5.000,0
"07/10/06","05:02:26","AMMA06",33544.000,"cc",28309.070,6.00,2830.907,1,6,0.100,17692.000,0.200,13497.000,0.300,2188.000,0.500,122.000,1.000,45.000,5.000,0
"07/10/06","05:02:32","AMMA06",33529.000,"cc",28301.947,6.00,2830.195,1,6,0.100,17693.000,0.200,13451.000,0.300,2204.000,0.500,126.000,1.000,55.000,5.000,0
"07/10/06","05:02:38","AMMA06",33463.000,"cc",28362.166,6.00,2836.217,1,6,0.100,17654.000,0.200,13502.000,0.300,2143.000,0.500,113.000,1.000,51.000,5.000,0
"07/10/06","05:02:44","AMMA06",33573.000,"cc",28285.662,6.00,2828.566,1,6,0.100,17586.000,0.200,13611.000,0.300,2181.000,0.500,137.000,1.000,58.000,5.000,0
"07/10/06","05:02:50","AMMA06",33787.000,"cc",28322.020,6.00,2832.202,1,6,0.100,17761.000,0.200,13657.000,0.300,2177.000,0.500,143.000,1.000,49.000,5.000,0
"07/10/06","05:02:56","AMMA06",33363.000,"cc",28354.354,6.00,2835.436,1,6,0.100,17384.000,0.200,13626.000,0.300,2183.000,0.500,123.000,1.000,47.000,5.000,0
"07/10/06","05:03:02","AMMA06",33229.000,"cc",28332.363,6.00,2833.237,1,6,0.100,17605.000,0.200,13323.000,0.300,2162.000,0.500,96.000,1.000,43.000,5.000,0
"07/10/06","05:03:08","AMMA06",33720.000,"cc",28316.322,6.00,2831.632,1,6,0.100,17703.000,0.200,13686.000,0.300,2164.000,0.500,113.000,1.000,54.000,5.000,0
"07/10/06","05:03:14","AMMA06",33345.000,"cc",28306.654,6.00,2830.666,1,6,0.100,17291.000,0.200,13639.000,0.300,2195.000,0.500,148.000,1.000,72.000,5.000,0
"07/10/06","05:03:20","AMMA06",33860.000,"cc",28259.725,6.00,2825.973,1,6,0.100,17882.000,0.200,13734.000,0.300,2080.000,0.500,126.000,1.000,38.000,5.000,0
"07/10/06","05:03:26","AMMA06",33998.000,"cc",28399.207,6.00,2839.921,1,6,0.100,17913.000,0.200,13670.000,0.300,2209.000,0.500,145.000,1.000,61.000,5.000,0
"07/10/06","05:03:32","AMMA06",33512.000,"cc",28320.938,6.00,2832.094,1,6,0.100,17491.000,0.200,13668.000,0.300,2165.000,0.500,126.000,1.000,62.000,5.000,0
"07/10/06","05:03:38","AMMA06",34060.000,"cc",28285.156,6.00,2828.516,1,6,0.100,17967.000,0.200,13652.000,0.300,2242.000,0.500,138.000,1.000,61.000,5.000,0
"07/10/06","05:03:44","AMMA06",33760.000,"cc",28301.416,6.00,2830.142,1,6,0.100,17776.000,0.200,13711.000,0.300,2062.000,0.500,143.000,1.000,68.000,5.000,0
"07/10/06","05:03:50","AMMA06",34133.000,"cc",28327.098,6.00,2832.710,1,6,0.100,18055.000,0.200,13734.000,0.300,2160.000,0.500,123.000,1.000,61.000,5.000,0
"07/10/06","05:03:56","AMMA06",33705.000,"cc",28348.074,6.00,2834.808,1,6,0.100,17811.000,0.200,13554.000,0.300,2151.000,0.500,120.000,1.000,69.000,5.000,0
"07/10/06","05:04:02","AMMA06",33738.000,"cc",28326.834,6.00,2832.684,1,6,0.100,17831.000,0.200,13610.000,0.300,2123.000,0.500,134.000,1.000,40.000,5.000,0
"07/10/06","05:04:08","AMMA06",33659.000,"cc",28278.447,6.00,2827.845,1,6,0.100,17772.000,0.200,13574.000,0.300,2168.000,0.500,103.000,1.000,42.000,5.000,0
"07/10/06","05:04:14","AMMA06",33854.000,"cc",28318.504,6.00,2831.851,1,6,0.100,18022.000,0.200,13533.000,0.300,2117.000,0.500,130.000,1.000,52.000,5.000,0
"07/10/06","05:04:20","AMMA06",33884.000,"cc",28311.596,6.00,2831.160,1,6,0.100,18084.000,0.200,13513.000,0.300,2121.000,0.500,112.000,1.000,54.000,5.000,0
"07/10/06","05:04:26","AMMA06",33679.000,"cc",28291.004,6.00,2829.101,1,6,0.100,17872.000,0.200,13489.000,0.300,2161.000,0.500,109.000,1.000,48.000,5.000,0
"07/10/06","05:04:32","AMMA06",33560.000,"cc",28356.381,6.00,2835.638,1,6,0.100,17727.000,0.200,13592.000,0.300,2070.000,0.500,118.000,1.000,53.000,5.000,0
"07/10/06","05:04:38","AMMA06",33551.000,"cc",28319.057,6.00,2831.906,1,6,0.100,18053.000,0.200,13209.000,0.300,2123.000,0.500,119.000,1.000,47.000,5.000,0
"07/10/06","05:04:44","AMMA06",33652.000,"cc",28364.832,6.00,2836.483,1,6,0.100,18002.000,0.200,13441.000,0.300,2037.000,0.500,112.000,1.000,60.000,5.000,0
"07/10/06","05:04:50","AMMA06",33618.000,"cc",28287.313,6.00,2828.731,1,6,0.100,17922.000,0.200,13386.000,0.300,2136.000,0.500,125.000,1.000,49.000,5.000,0
"07/10/06","05:04:56","AMMA06",34219.000,"cc",28302.588,6.00,2830.259,1,6,0.100,18073.000,0.200,13807.000,0.300,2178.000,0.500,107.000,1.000,54.000,5.000,0
"07/10/06","05:05:02","AMMA06",33869.000,"cc",28305.801,6.00,2830.580,1,6,0.100,17980.000,0.200,13591.000,0.300,2120.000,0.500,119.000,1.000,59.000,5.000,0
"07/10/06","05:05:08","AMMA06",33520.000,"cc",28324.107,6.00,2832.411,1,6,0.100,17843.000,0.200,13436.000,0.300,2061.000,0.500,135.000,1.000,45.000,5.000,0
"07/10/06","05:05:14","AMMA06",33612.000,"cc",28303.432,6.00,2830.343,1,6,0.100,17893.000,0.200,13478.000,0.300,2075.000,0.500,126.000,1.000,40.000,5.000,0
"07/10/06","05:05:20","AMMA06",33627.000,"cc",28356.020,6.00,2835.602,1,6,0.100,17956.000,0.200,13369.000,0.300,2133.000,0.500,106.000,1.000,63.000,5.000,0
"07/10/06","05:05:26","AMMA06",33703.000,"cc",28305.297,6.00,2830.530,1,6,0.100,18031.000,0.200,13420.000,0.300,2064.000,0.500,117.000,1.000,71.000,5.000,0
"07/10/06","05:05:32","AMMA06",33922.000,"cc",28256.709,6.00,2825.671,1,6,0.100,18003.000,0.200,13548.000,0.300,2195.000,0.500,122.000,1.000,54.000,5.000,0
"07/10/06","05:05:38","AMMA06",33512.000,"cc",28331.313,6.00,2833.131,1,6,0.100,17744.000,0.200,13514.000,0.300,2074.000,0.500,131.000,1.000,49.000,5.000,0
"07/10/06","05:05:44","AMMA06",33485.000,"cc",28361.475,6.00,2836.148,1,6,0.100,17656.000,0.200,13476.000,0.300,2188.000,0.500,119.000,1.000,46.000,5.000,0
"07/10/06","05:05:50","AMMA06",33592.000,"cc",28310.443,6.00,2831.044,1,6,0.100,17704.000,0.200,13538.000,0.300,2164.000,0.500,127.000,1.000,59.000,5.000,0
"07/10/06","05:05:56","AMMA06",33692.000,"cc",28282.719,6.00,2828.272,1,6,0.100,18080.000,0.200,13316.000,0.300,2100.000,0.500,140.000,1.000,56.000,5.000,0
"07/10/06","05:06:02","AMMA06",33421.000,"cc",28324.496,6.00,2832.450,1,6,0.100,17732.000,0.200,13495.000,0.300,2046.000,0.500,94.000,1.000,54.000,5.000,0
"07/10/06","05:06:08","AMMA06",33486.000,"cc",28329.488,6.00,2832.949,1,6,0.100,17614.000,0.200,13604.000,0.300,2096.000,0.500,125.000,1.000,47.000,5.000,0
"07/10/06","05:06:14","AMMA06",33727.000,"cc",28320.211,6.00,2832.021,1,6,0.100,17819.000,0.200,13547.000,0.300,2183.000,0.500,129.000,1.000,49.000,5.000,0
"07/10/06","05:06:20","AMMA06",33057.000,"cc",28280.604,6.00,2828.061,1,6,0.100,17224.000,0.200,13535.000,0.300,2160.000,0.500,94.000,1.000,44.000,5.000,0
"07/10/06","05:06:26","AMMA06",33844.000,"cc",28347.438,6.00,2834.744,1,6,0.100,17815.000,0.200,13657.000,0.300,2208.000,0.500,114.000,1.000,50.000,5.000,0
"07/10/06","05:06:32","AMMA06",33385.000,"cc",28322.213,6.00,2832.221,1,6,0.100,17400.000,0.200,13579.000,0.300,2246.000,0.500,113.000,1.000,47.000,5.000,0
"07/10/06","05:06:38","AMMA06",33647.000,"cc",28292.252,6.00,2829.225,1,6,0.100,17605.000,0.200,13611.000,0.300,2238.000,0.500,129.000,1.000,64.000,5.000,0
"07/10/06","05:06:44","AMMA06",33654.000,"cc",28298.984,6.00,2829.899,1,6,0.100,17547.000,0.200,13694.000,0.300,2240.000,0.500,126.000,1.000,47.000,5.000,0
"07/10/06","05:06:50","AMMA06",33352.000,"cc",28353.758,6.00,2835.376,1,6,0.100,17495.000,0.200,13406.000,0.300,2269.000,0.500,122.000,1.000,60.000,5.000,0
"07/10/06","05:06:56","AMMA06",32823.000,"cc",28325.184,6.00,2832.519,1,6,0.100,17187.000,0.200,13287.000,0.300,2145.000,0.500,141.000,1.000,63.000,5.000,0
"07/10/06","05:07:02","AMMA06",33353.000,"cc",28315.606,6.00,2831.561,1,6,0.100,17325.000,0.200,13413.000,0.300,2380.000,0.500,176.000,1.000,59.000,5.000,0
"07/10/06","05:07:08","AMMA06",33077.000,"cc",28257.231,6.00,2825.723,1,6,0.100,17151.000,0.200,13428.000,0.300,2295.000,0.500,133.000,1.000,70.000,5.000,0
"07/10/06","05:07:14","AMMA06",33050.000,"cc",28329.619,6.00,2832.962,1,6,0.100,17089.000,0.200,13446.000,0.300,2319.000,0.500,139.000,1.000,57.000,5.000,0
"07/10/06","05:07:20","AMMA06",32791.000,"cc",28308.643,6.00,2830.865,1,6,0.100,16948.000,0.200,13372.000,0.300,2280.000,0.500,131.000,1.000,60.000,5.000,0
"07/10/06","05:07:26","AMMA06",33117.000,"cc",28326.582,6.00,2832.658,1,6,0.100,17369.000,0.200,13259.000,0.300,2302.000,0.500,127.000,1.000,60.000,5.000,0
"07/10/06","05:07:32","AMMA06",32858.000,"cc",28330.043,6.00,2833.004,1,6,0.100,17076.000,0.200,13392.000,0.300,2202.000,0.500,128.000,1.000,60.000,5.000,0
"07/10/06","05:07:38","AMMA06",32965.000,"cc",28351.275,6.00,2835.128,1,6,0.100,16979.000,0.200,13468.000,0.300,2338.000,0.500,122.000,1.000,58.000,5.000,0
"07/10/06","05:07:44","AMMA06",33012.000,"cc",28320.908,6.00,2832.091,1,6,0.100,17160.000,0.200,13476.000,0.300,2209.000,0.500,104.000,1.000,63.000,5.000,0
"07/10/06","05:07:50","AMMA06",33517.000,"cc",28284.723,6.00,2828.472,1,6,0.100,17586.000,0.200,13433.000,0.300,2318.000,0.500,125.000,1.000,55.000,5.000,0
"07/10/06","05:07:56","AMMA06",33138.000,"cc",28332.691,6.00,2833.269,1,6,0.100,17238.000,0.200,13470.000,0.300,2235.000,0.500,128.000,1.000,67.000,5.000,0
"07/10/06","05:08:02","AMMA06",32813.000,"cc",28282.842,6.00,2828.284,1,6,0.100,16922.000,0.200,13488.000,0.300,2242.000,0.500,105.000,1.000,56.000,5.000,0
"07/10/06","05:08:08","AMMA06",33153.000,"cc",28332.027,6.00,2833.203,1,6,0.100,17216.000,0.200,13602.000,0.300,2161.000,0.500,125.000,1.000,49.000,5.000,0
"07/10/06","05:08:14","AMMA06",33077.000,"cc",28331.227,6.00,2833.123,1,6,0.100,17348.000,0.200,13297.000,0.300,2222.000,0.500,140.000,1.000,70.000,5.000,0
"07/10/06","05:08:20","AMMA06",33241.000,"cc",28325.908,6.00,2832.591,1,6,0.100,17365.000,0.200,13497.000,0.300,2162.000,0.500,158.000,1.000,59.000,5.000,0
"07/10/06","05:08:26","AMMA06",33152.000,"cc",28304.672,6.00,2830.467,1,6,0.100,17414.000,0.200,13406.000,0.300,2155.000,0.500,122.000,1.000,55.000,5.000,0
"07/10/06","05:08:32","AMMA06",33157.000,"cc",28326.117,6.00,2832.612,1,6,0.100,17350.000,0.200,13407.000,0.300,2230.000,0.500,119.000,1.000,51.000,5.000,0
"07/10/06","05:08:38","AMMA06",32615.000,"cc",28315.981,6.00,2831.598,1,6,0.100,17098.000,0.200,13225.000,0.300,2116.000,0.500,128.000,1.000,48.000,5.000,0
"07/10/06","05:08:44","AMMA06",33167.000,"cc",28280.426,6.00,2828.043,1,6,0.100,17444.000,0.200,13399.000,0.300,2128.000,0.500,120.000,1.000,76.000,5.000,0
"07/10/06","05:08:50","AMMA06",33070.000,"cc",28307.592,6.00,2830.759,1,6,0.100,17514.000,0.200,13236.000,0.300,2142.000,0.500,118.000,1.000,60.000,5.000,0
"07/10/06","05:08:56","AMMA06",33122.000,"cc",28327.236,6.00,2832.724,1,6,0.100,17463.000,0.200,13353.000,0.300,2134.000,0.500,117.000,1.000,55.000,5.000,0
"07/10/06","05:09:02","AMMA06",33271.000,"cc",28334.609,6.00,2833.461,1,6,0.100,17605.000,0.200,13405.000,0.300,2068.000,0.500,135.000,1.000,58.000,5.000,0
"07/10/06","05:09:08","AMMA06",32977.000,"cc",28284.570,6.00,2828.457,1,6,0.100,17467.000,0.200,13287.000,0.300,2036.000,0.500,130.000,1.000,57.000,5.000,0
"07/10/06","05:09:14","AMMA06",33170.000,"cc",28333.080,6.00,2833.308,1,6,0.100,17684.000,0.200,13243.000,0.300,2068.000,0.500,115.000,1.000,60.000,5.000,0
"07/10/06","05:09:20","AMMA06",32803.000,"cc",28304.500,6.00,2830.450,1,6,0.100,17467.000,0.200,13127.000,0.300,2024.000,0.500,131.000,1.000,54.000,5.000,0
"07/10/06","05:09:26","AMMA06",32882.000,"cc",28379.580,6.00,2837.958,1,6,0.100,17463.000,0.200,13182.000,0.300,2062.000,0.500,132.000,1.000,43.000,5.000,0
"07/10/06","05:09:32","AMMA06",32600.000,"cc",28317.617,6.00,2831.762,1,6,0.100,17285.000,0.200,12941.000,0.300,2194.000,0.500,126.000,1.000,54.000,5.000,0
"07/10/06","05:09:38","AMMA06",32618.000,"cc",28282.637,6.00,2828.264,1,6,0.100,17408.000,0.200,12992.000,0.300,2040.000,0.500,122.000,1.000,56.000,5.000,0
"07/10/06","05:09:44","AMMA06",32962.000,"cc",28316.356,6.00,2831.636,1,6,0.100,17735.000,0.200,13003.000,0.300,2036.000,0.500,132.000,1.000,56.000,5.000,0
"07/10/06","05:09:50","AMMA06",32497.000,"cc",28331.674,6.00,2833.168,1,6,0.100,17337.000,0.200,12899.000,0.300,2081.000,0.500,120.000,1.000,60.000,5.000,0
"07/10/06","05:09:56","AMMA06",32423.000,"cc",28305.342,6.00,2830.534,1,6,0.100,17426.000,0.200,12793.000,0.300,2038.000,0.500,114.000,1.000,52.000,5.000,0
"07/10/06","05:10:02","AMMA06",32608.000,"cc",28352.565,6.00,2835.257,1,6,0.100,17439.000,0.200,12951.000,0.300,2052.000,0.500,112.000,1.000,54.000,5.000,0
"07/10/06","05:10:08","AMMA06",32559.000,"cc",28303.434,6.00,2830.344,1,6,0.100,17201.000,0.200,13080.000,0.300,2094.000,0.500,118.000,1.000,66.000,5.000,0
"07/10/06","05:10:14","AMMA06",32452.000,"cc",28343.951,6.00,2834.395,1,6,0.100,17356.000,0.200,12918.000,0.300,1997.000,0.500,120.000,1.000,61.000,5.000,0
"07/10/06","05:10:20","AMMA06",32414.000,"cc",28312.572,6.00,2831.257,1,6,0.100,17182.000,0.200,12999.000,0.300,2070.000,0.500,113.000,1.000,50.000,5.000,0
"07/10/06","05:10:26","AMMA06",32626.000,"cc",28227.406,6.00,2822.741,1,6,0.100,17465.000,0.200,12947.000,0.300,2056.000,0.500,114.000,1.000,44.000,5.000,0
"07/10/06","05:10:32","AMMA06",32264.000,"cc",28310.865,6.00,2831.087,1,6,0.100,17067.000,0.200,12969.000,0.300,2046.000,0.500,126.000,1.000,56.000,5.000,0
"07/10/06","05:10:38","AMMA06",32323.000,"cc",28383.398,6.00,2838.340,1,6,0.100,17209.000,0.200,12943.000,0.300,1992.000,0.500,121.000,1.000,58.000,5.000,0
"07/10/06","05:10:44","AMMA06",32655.000,"cc",28340.494,6.00,2834.050,1,6,0.100,17480.000,0.200,13034.000,0.300,1963.000,0.500,115.000,1.000,63.000,5.000,0
"07/10/06","05:10:50","AMMA06",32708.000,"cc",28308.307,6.00,2830.831,1,6,0.100,17267.000,0.200,13135.000,0.300,2118.000,0.500,137.000,1.000,51.000,5.000,0
"07/10/06","05:10:56","AMMA06",32632.000,"cc",28300.760,6.00,2830.076,1,6,0.100,17190.000,0.200,13239.000,0.300,2024.000,0.500,114.000,1.000,65.000,5.000,0
"07/10/06","05:11:02","AMMA06",32526.000,"cc",28298.240,6.00,2829.824,1,6,0.100,17483.000,0.200,12901.000,0.300,1978.000,0.500,119.000,1.000,45.000,5.000,0
"07/10/06","05:11:08","AMMA06",32432.000,"cc",28316.846,6.00,2831.685,1,6,0.100,17306.000,0.200,12978.000,0.300,1963.000,0.500,136.000,1.000,49.000,5.000,0
"07/10/06","05:11:14","AMMA06",32415.000,"cc",28363.842,6.00,2836.384,1,6,0.100,17199.000,0.200,13016.000,0.300,2025.000,0.500,108.000,1.000,67.000,5.000,0
"07/10/06","05:11:20","AMMA06",32450.000,"cc",28318.647,6.00,2831.865,1,6,0.100,17307.000,0.200,12991.000,0.300,1968.000,0.500,122.000,1.000,62.000,5.000,0
"07/10/06","05:11:26","AMMA06",32482.000,"cc",28271.053,6.00,2827.106,1,6,0.100,17382.000,0.200,12919.000,0.300,1981.000,0.500,146.000,1.000,54.000,5.000,0
"07/10/06","05:11:32","AMMA06",32899.000,"cc",28331.639,6.00,2833.164,1,6,0.100,17642.000,0.200,13023.000,0.300,2062.000,0.500,115.000,1.000,57.000,5.000,0
"07/10/06","05:11:38","AMMA06",32173.000,"cc",28321.504,6.00,2832.151,1,6,0.100,17126.000,0.200,12797.000,0.300,2043.000,0.500,146.000,1.000,61.000,5.000,0
"07/10/06","05:11:44","AMMA06",32670.000,"cc",28274.422,6.00,2827.442,1,6,0.100,17224.000,0.200,13106.000,0.300,2156.000,0.500,117.000,1.000,67.000,5.000,0
"07/10/06","05:11:50","AMMA06",32156.000,"cc",28308.408,6.00,2830.841,1,6,0.100,17181.000,0.200,12758.000,0.300,2034.000,0.500,132.000,1.000,51.000,5.000,0
"07/10/06","05:11:56","AMMA06",32018.000,"cc",28330.371,6.00,2833.037,1,6,0.100,16955.000,0.200,12876.000,0.300,2014.000,0.500,131.000,1.000,42.000,5.000,0
"07/10/06","05:12:02","AMMA06",32616.000,"cc",28344.451,6.00,2834.445,1,6,0.100,17245.000,0.200,13158.000,0.300,2041.000,0.500,116.000,1.000,56.000,5.000,0
"07/10/06","05:12:08","AMMA06",32451.000,"cc",28343.486,6.00,2834.349,1,6,0.100,17002.000,0.200,13124.000,0.300,2132.000,0.500,124.000,1.000,69.000,5.000,0
"07/10/06","05:12:14","AMMA06",32488.000,"cc",28302.719,6.00,2830.272,1,6,0.100,17111.000,0.200,13061.000,0.300,2126.000,0.500,135.000,1.000,55.000,5.000,0
"07/10/06","05:12:20","AMMA06",32476.000,"cc",28265.625,6.00,2826.563,1,6,0.100,17150.000,0.200,12967.000,0.300,2162.000,0.500,144.000,1.000,53.000,5.000,0
"07/10/06","05:12:26","AMMA06",32056.000,"cc",28329.832,6.00,2832.983,1,6,0.100,16846.000,0.200,12915.000,0.300,2128.000,0.500,107.000,1.000,60.000,5.000,0
"07/10/06","05:12:32","AMMA06",32747.000,"cc",28287.311,6.00,2828.731,1,6,0.100,17226.000,0.200,13301.000,0.300,2059.000,0.500,112.000,1.000,49.000,5.000,0
"07/10/06","05:12:38","AMMA06",32711.000,"cc",28330.723,6.00,2833.073,1,6,0.100,17092.000,0.200,13311.000,0.300,2151.000,0.500,118.000,1.000,39.000,5.000,0
"07/10/06","05:12:44","AMMA06",32575.000,"cc",28344.361,6.00,2834.436,1,6,0.100,16977.000,0.200,13157.000,0.300,2246.000,0.500,135.000,1.000,60.000,5.000,0
"07/10/06","05:12:50","AMMA06",32621.000,"cc",28344.977,6.00,2834.498,1,6,0.100,16989.000,0.200,13147.000,0.300,2268.000,0.500,152.000,1.000,65.000,5.000,0
"07/10/06","05:12:56","AMMA06",32413.000,"cc",28343.025,6.00,2834.303,1,6,0.100,16799.000,0.200,13270.000,0.300,2182.000,0.500,101.000,1.000,61.000,5.000,0
"07/10/06","05:13:02","AMMA06",32567.000,"cc",28310.322,6.00,2831.033,1,6,0.100,16700.000,0.200,13414.000,0.300,2270.000,0.500,130.000,1.000,53.000,5.000,0
"07/10/06","05:13:08","AMMA06",32627.000,"cc",28330.830,6.00,2833.083,1,6,0.100,17102.000,0.200,13112.000,0.300,2216.000,0.500,138.000,1.000,59.000,5.000,0
"07/10/06","05:13:14","AMMA06",32661.000,"cc",28323.949,6.00,2832.395,1,6,0.100,17040.000,0.200,13267.000,0.300,2155.000,0.500,137.000,1.000,62.000,5.000,0
"07/10/06","05:13:20","AMMA06",32446.000,"cc",28275.469,6.00,2827.547,1,6,0.100,16834.000,0.200,13261.000,0.300,2171.000,0.500,121.000,1.000,59.000,5.000,0
"07/10/06","05:13:26","AMMA06",32231.000,"cc",28340.678,6.00,2834.068,1,6,0.100,16713.000,0.200,13191.000,0.300,2166.000,0.500,108.000,1.000,53.000,5.000,0
"07/10/06","05:13:32","AMMA06",32453.000,"cc",28340.631,6.00,2834.063,1,6,0.100,16976.000,0.200,13140.000,0.300,2146.000,0.500,129.000,1.000,62.000,5.000,0
"07/10/06","05:13:38","AMMA06",32294.000,"cc",28287.725,6.00,2828.773,1,6,0.100,16803.000,0.200,13127.000,0.300,2198.000,0.500,114.000,1.000,52.000,5.000,0
"07/10/06","05:13:44","AMMA06",32355.000,"cc",28326.715,6.00,2832.672,1,6,0.100,16918.000,0.200,13128.000,0.300,2117.000,0.500,139.000,1.000,53.000,5.000,0
"07/10/06","05:13:50","AMMA06",32150.000,"cc",28297.387,6.00,2829.739,1,6,0.100,16907.000,0.200,13011.000,0.300,2077.000,0.500,112.000,1.000,43.000,5.000,0
"07/10/06","05:13:56","AMMA06",32529.000,"cc",28385.658,6.00,2838.566,1,6,0.100,17170.000,0.200,13031.000,0.300,2143.000,0.500,115.000,1.000,70.000,5.000,0
"07/10/06","05:14:02","AMMA06",32603.000,"cc",28306.100,6.00,2830.610,1,6,0.100,17240.000,0.200,13075.000,0.300,2114.000,0.500,111.000,1.000,63.000,5.000,0
"07/10/06","05:14:08","AMMA06",32361.000,"cc",28261.113,6.00,2826.112,1,6,0.100,17017.000,0.200,13069.000,0.300,2106.000,0.500,110.000,1.000,59.000,5.000,0
"07/10/06","05:14:14","AMMA06",32408.000,"cc",28338.133,6.00,2833.814,1,6,0.100,17116.000,0.200,13020.000,0.300,2098.000,0.500,118.000,1.000,56.000,5.000,0
"07/10/06","05:14:20","AMMA06",32407.000,"cc",28311.375,6.00,2831.138,1,6,0.100,17005.000,0.200,13101.000,0.300,2115.000,0.500,125.000,1.000,61.000,5.000,0